149  
ASUS44 KEWX 300911  
RWRTX  
SOUTH TEXAS REGIONAL WEATHER ROUNDUP  
NATIONAL WEATHER SERVICE AUSTIN/SAN ANTONIO TX  
400 AM CDT FRI SEP 30 2016  
 
NOTE: "FAIR" INDICATED FEW OR NO CLOUDS BELOW 12,000 FEET WITH NO  
SIGNIFICANT WEATHER AND/OR S TO VISIBILITY
.  
 
* - THESE STATIONS ARE NOT NWS OR FAA STATIONS...AND ARE NOT SUBJECT  
TO NWS AND FAA QUALITY CONTROL.
 
 
TXZ171-172-183>190-301000-  
TEXAS HILL COUNTRY AND EDWARDS PLATEAU  
 
CITY SKY/WX TMP DP RH WIND PRES REMARKS
 
JUNCTION MOCLDY 58 50 75 CALM 30.24F  
*LLANO CLEAR 54 54 100 CALM 30.27R  
BURNET CLEAR 57 49 74 CALM 30.24S  
*HORSESHOE BAY CLEAR 52 50 94 S3 30.22S  
*KERRVILLE CLEAR 54 51 92 CALM 30.24S  
*FREDERICKSBRG CLEAR 53 49 86 CALM 30.24S  
*ROCKSPRINGS MOCLDY 57 48 72 NE5 30.26F  
*BOERNE STAGE CLEAR 52 50 93 CALM 30.23S  
*CASTROVILLE CLEAR 60 51 70 N6 30.21S  
HONDO CLEAR 56 51 84 NW5 30.20S  
*UVALDE CLEAR 62 54 74 NE9 30.21S  
DEL RIO PTCLDY 64 60 87 CALM 30.20R  
LAUGHLIN AFB PTCLDY 65 59 80 CALM 30.20R  
CARRIZO SPRGS CLEAR 63 55 77 NE3 30.18S  
*EAGLE PASS NOT AVBL  

 
 
TXZ173-191>194-202-209-217>225-228-301000-  
CENTRAL AND SOUTH CENTRAL TEXAS  
 
CITY SKY/WX TMP DP RH WIND PRES REMARKS
 
GEORGETOWN CLEAR N/A N/A N/A NW5 30.18R  
AUSTIN/BERGSTM PTCLDY 55 52 89 NW3 30.19R  
AUSTIN/MABRY CLEAR 61 51 70 CALM 30.21R  
*AUSTIN/EXEC PTCLDY 59 52 77 N7 30.20S HAZE  
*LAGO VISTA CLEAR 59 50 73 N7 30.22R  
SAN MARCOS CLEAR 55 52 88 N3 30.22S  
NEW BRAUNFELS CLEAR 61 51 70 N9 30.17F  
RANDOLPH AFB CLEAR 57 53 88 N6 30.18F  
PT SAN ANTONIO CLEAR 59 52 76 N3 30.17S  
SAN ANTONIO CLEAR 61 51 70 N7 30.19F  
STINSON FIELD CLEAR 64 50 60 N5 30.17S  
*PLEASANTON CLEAR 62 52 71 N5 30.18S  
*LA GRANGE CLEAR 60 55 85 CALM 30.15S  
*GIDDINGS CLEAR 56 53 88 CALM 30.21S  
*GONZALES CLEAR 56 54 94 N3 30.17S  

 
 
TXZ163>164-176>182-195>201-210>213-226-227-235-301000-  
SOUTHEAST TEXAS  
 
CITY SKY/WX TMP DP RH WIND PRES REMARKS
 
COLLEGE STN CLEAR 60 53 77 N3 30.17S  
*BRYAN CLEAR 56 53 88 CALM 30.18S  
*CALDWELL NOT AVBL  
*CROCKETT NOT AVBL  
*BRENHAM CLEAR 59 54 82 CALM 30.17S  
HUNTSVILLE CLEAR 55 51 86 CALM 30.16S  
CONROE CLEAR 53 51 93 NW3 30.15F  
HOUSTON BUSH CLEAR 60 55 83 N3 30.14F  
HOUSTON HOBBY CLEAR 63 54 72 NE7 30.12F  
*HOUSTON SW AP CLEAR 59 55 87 CALM 30.14F  
PEARLAND CLEAR 66 54 65 CALM 30.14F  
HOUSTON HOOKS CLEAR 59 54 83 N3 30.14F  
ELLINGTON FLD CLEAR 66 55 68 CALM 30.13F  
SUGAR LAND CLEAR 60 53 77 CALM 30.14S  
*HOUSTON EXEC CLEAR 55 54 94 CALM 30.16S  
*CLEVELAND MUN CLEAR 55 53 95 CALM 30.15F  
*WHARTON CLEAR 57 55 91 CALM 30.15S  
*COLUMBUS FAIR 58 55 91 CALM 30.17S  
*EAGLE LAKE SUNNY 58 55 92 N3 30.15S  

 
 
TXZ214>216-236>238-301000-  
THE UPPER TEXAS COAST  
 
CITY SKY/WX TMP DP RH WIND PRES REMARKS
 
*ORANGE PTCLDY 57 57 100 CALM 30.13F  
PORT ARTHUR PTCLDY 59 54 83 N6 30.11F  
GALVESTON CLEAR 69 59 70 NE13 30.12F  
ANGLETON CLEAR 61 57 87 N3 30.13F  
*BAY CITY CLEAR 62 58 86 N3 30.14S  
PALACIOS CLEAR 60 57 89 N6 30.13F  

 
 
TXZ229>234-239>247-301000-  
TEXAS COASTAL BEND AND RIO GRANDE PLAINS  
 
CITY SKY/WX TMP DP RH WIND PRES REMARKS
 
VICTORIA CLEAR 55 53 93 N6 30.15F  
*BEEVILLE CLEAR 63 56 80 NE6 30.15S  
ROCKPORT CLEAR 68 59 73 NE9 30.12F  
*PORT ARANSAS PTCLDY 73 63 70 NE13 30.11S  
*PORT LAVACA CLEAR 61 58 88 N7 30.14F  
*INGLESIDE CLEAR 69 60 73 NE8 30.12S  
CORPUS CHRISTI PTCLDY 68 59 73 NE9 30.12F  
CORPUS NAS CLEAR 74 64 71 NE16 30.11F  
*ROBSTOWN CLEAR 68 58 71 NE8 30.13F  
ALICE PTCLDY 64 57 78 NE7 30.13F  
KINGSVILLE NAS CLEAR 65 61 87 N7 30.12F  
COTULLA CLEAR 66 53 63 NE5 30.17F  
*FAITH RANCH N/A N/A N/A N/A MISG N/A  
LAREDO CLEAR 68 59 73 NE10 30.15F  

 
 
TXZ248>255-301000-  
DEEP SOUTH TEXAS  
 
CITY SKY/WX TMP DP RH WIND PRES REMARKS
 
BROWNSVILLE CLEAR 74 69 85 N6 30.07F  
PORT ISABEL CLEAR 73 71 93 N6 30.06F  
*SOUTH PADRE N/A 82 70 65 NE15 30.06  
HARLINGEN CLEAR 72 69 90 N9 30.06F  
*HEBBRONVILLE CLOUDY 67 57 69 NE7 30.16S  
MCALLEN CLOUDY 77 64 64 N9 30.09F  
*WESLACO CLOUDY 73 66 78 N5 30.07F  
FALFURRIAS PTCLDY 68 57 66 N8 30.12S  
EDINBURG CLEAR 71 63 75 N6 30.10S  
*ZAPATA CLEAR 72 56 57 NE5 30.13S  

 
 
TXZ213>215-236>238-242>244-246-247-251-254-255-301000-  
CMAN STATIONS  
 
STATION/POSITION TIME TEMP WIND PRES WAVE
 
AIR SEA DIR/SP/G HT/PER  
(UTC) (F) (DEG/KT/KT) (MB) (FT/S)  
SABINE PASS 0848 65 82 20/ 6/ 8 1021.2  
SEA RIM ST PARK 0800 65 30/ 2/ 3 1020.7  
NORTH JETTY/GLS 0848 72 81 50/ 16/ 18 N/A  
EAGLE POINT 0848 71 79 70/ 14/ 17 1020.0  
MORGANS POINT 0848 66 82 30/ 5/ 7 1020.2  
PORT ARANSAS 0800 74 83 360/ 15/ 17 1019.8  
MALAQUITE BEACH 0848 75 83 360/ 15/ 16 1019.6  
BAFFIN BAY 0848 78 80 20/ 17/ 19 1019.1  
PORT ISABEL 0848 82 84 20/ 5/ 7 1017.9  

 
 
GMZ080-GMZ150>470-301000-  
OFFSHORE BUOY REPORTS  
 
STATION/POSITION TIME TEMP WIND PRES WAVE
 
AIR SEA DIR/SP/G HT/PER  
(UTC) (F) (DEG/KT/KT) (MB) (FT/S)  
20 E GALVESTON 0850 74 84 30/ 16/ 19 1019.4 4/ 5  
90 E PT ARANSAS 0850 80 86 20/ 14/ 16 1018.5 3/ 5  
35 NE PT MANSFLD 0850 83 84 50/ 14/ 16 1017.5 2/ 4  
200 E PT ISABEL 0850 83 87 30/ 14/ 17 1015.6 2/ 4  

 
 
 
CLICK HERE TO GO TO PREVIOUS BULLETINS.

The Nexlab TX Page Main Text Page